• In Deutschland
  • Länderverzeichnis
  • Für 7 Tage
  • Wassertemperatur
  • Satellitenkarten
  • Wetterkarte
  • Widgets
  • user-avatar
    Anmelden

    Stündliche Wetter Annaba

    Heute, 29 April, Samstag

    Zeit Temperatur Niederschläge Wind Luftdruck Luftfeuchtigkeit
    00:00 +14°C° 0,1 mm 2 m/S 759 mmHg 87%
    01:00 +14°C° 0 mm 2 m/S 759 mmHg 86%
    02:00 +13°C° 0 mm 2 m/S 759 mmHg 86%
    03:00 +13°C° 0 mm 2 m/S 759 mmHg 87%
    04:00 +12°C° 0 mm 2 m/S 759 mmHg 88%
    05:00 +13°C° 0 mm 1 m/S 759 mmHg 86%
    06:00 +14°C° 0 mm 1 m/S 759 mmHg 84%
    07:00 +14°C° 0 mm 1 m/S 759 mmHg 82%
    08:00 +15°C° 0 mm 1 m/S 759 mmHg 78%
    09:00 +16°C° 0 mm 1 m/S 759 mmHg 74%
    10:00 +18°C° 0 mm 1 m/S 759 mmHg 69%
    11:00 +18°C° 0 mm 2 m/S 759 mmHg 65%
    12:00 +19°C° 0 mm 2 m/S 759 mmHg 61%
    13:00 +21°C° 0 mm 2 m/S 758 mmHg 57%
    14:00 +21°C° 0 mm 3 m/S 758 mmHg 57%
    15:00 +21°C° 0 mm 3 m/S 758 mmHg 57%
    16:00 +21°C° 0 mm 4 m/S 758 mmHg 57%
    17:00 +20°C° 0 mm 3 m/S 758 mmHg 63%
    18:00 +18°C° 0 mm 3 m/S 758 mmHg 69%
    19:00 +16°C° 0 mm 3 m/S 758 mmHg 76%
    20:00 +14°C° 0 mm 3 m/S 758 mmHg 79%
    21:00 +14°C° 0 mm 2 m/S 759 mmHg 83%
    22:00 +13°C° 0 mm 2 m/S 759 mmHg 87%
    23:00 +13°C° 0,1 mm 2 m/S 759 mmHg 87%

    Morgen, 30 April, Sonntag

    Zeit Temperatur Niederschläge Wind Luftdruck Luftfeuchtigkeit
    00:00 +13°C° 0,1 mm 2 m/S 759 mmHg 87%
    01:00 +13°C° 0,1 mm 2 m/S 759 mmHg 87%
    02:00 +13°C° 0 mm 2 m/S 759 mmHg 87%
    03:00 +13°C° 0 mm 2 m/S 758 mmHg 87%
    04:00 +12°C° 0 mm 2 m/S 758 mmHg 87%
    05:00 +14°C° 0 mm 2 m/S 758 mmHg 84%
    06:00 +16°C° 0 mm 2 m/S 758 mmHg 80%
    07:00 +17°C° 0 mm 2 m/S 758 mmHg 77%
    08:00 +19°C° 0 mm 2 m/S 758 mmHg 72%
    09:00 +20°C° 0 mm 2 m/S 758 mmHg 67%
    10:00 +23°C° 0 mm 2 m/S 759 mmHg 62%
    11:00 +23°C° 0 mm 2 m/S 758 mmHg 61%
    12:00 +24°C° 0 mm 3 m/S 758 mmHg 61%
    13:00 +24°C° 0 mm 3 m/S 758 mmHg 61%
    14:00 +25°C° 0,1 mm 3 m/S 758 mmHg 60%
    15:00 +25°C° 0,1 mm 3 m/S 758 mmHg 60%
    16:00 +25°C° 0,1 mm 3 m/S 757 mmHg 59%
    17:00 +22°C° 0 mm 3 m/S 758 mmHg 66%
    18:00 +21°C° 0 mm 2 m/S 758 mmHg 73%
    19:00 +20°C° 0 mm 1 m/S 758 mmHg 79%
    20:00 +18°C° 0 mm 1 m/S 759 mmHg 82%
    21:00 +16°C° 0 mm 1 m/S 759 mmHg 85%
    22:00 +14°C° 0 mm 1 m/S 760 mmHg 88%
    23:00 +14°C° 0 mm 1 m/S 760 mmHg 88%

    übermorgen, 1 Mai, Montag

    Zeit Temperatur Niederschläge Wind Luftdruck Luftfeuchtigkeit
    00:00 +14°C° 0 mm 2 m/S 760 mmHg 88%
    01:00 +14°C° 0 mm 2 m/S 760 mmHg 88%
    02:00 +14°C° 0 mm 2 m/S 760 mmHg 88%
    03:00 +12°C° 0 mm 3 m/S 760 mmHg 88%
    04:00 +12°C° 0 mm 3 m/S 760 mmHg 88%
    05:00 +14°C° 0 mm 3 m/S 760 mmHg 84%
    06:00 +17°C° 0 mm 3 m/S 760 mmHg 79%
    07:00 +18°C° 0 mm 4 m/S 760 mmHg 75%
    08:00 +19°C° 0 mm 4 m/S 761 mmHg 72%
    09:00 +20°C° 0 mm 4 m/S 761 mmHg 69%
    10:00 +21°C° 0 mm 5 m/S 761 mmHg 66%
    11:00 +22°C° 0 mm 5 m/S 761 mmHg 63%
    12:00 +23°C° 0 mm 5 m/S 761 mmHg 59%
    13:00 +25°C° 0 mm 5 m/S 761 mmHg 56%
    14:00 +25°C° 0 mm 5 m/S 761 mmHg 57%
    15:00 +24°C° 0 mm 6 m/S 761 mmHg 58%
    16:00 +23°C° 0 mm 6 m/S 761 mmHg 59%
    17:00 +22°C° 0 mm 5 m/S 761 mmHg 67%
    18:00 +20°C° 0 mm 5 m/S 762 mmHg 76%
    19:00 +18°C° 0 mm 4 m/S 762 mmHg 84%
    20:00 +18°C° 0 mm 4 m/S 763 mmHg 86%
    21:00 +17°C° 0 mm 3 m/S 763 mmHg 89%
    22:00 +16°C° 0 mm 3 m/S 764 mmHg 91%
    23:00 +16°C° 0 mm 3 m/S 764 mmHg 91%

    2 Mai, Dienstag

    Zeit Temperatur Niederschläge Wind Luftdruck Luftfeuchtigkeit
    00:00 +16°C° 0 mm 2 m/S 764 mmHg 90%
    01:00 +16°C° 0 mm 2 m/S 764 mmHg 89%
    02:00 +15°C° 0 mm 2 m/S 763 mmHg 89%
    03:00 +14°C° 0 mm 2 m/S 763 mmHg 90%
    04:00 +13°C° 0 mm 2 m/S 763 mmHg 90%
    05:00 +14°C° 0 mm 2 m/S 763 mmHg 87%
    06:00 +15°C° 0 mm 2 m/S 763 mmHg 83%
    07:00 +16°C° 0 mm 1 m/S 764 mmHg 80%
    08:00 +17°C° 0 mm 2 m/S 764 mmHg 72%
    09:00 +19°C° 0 mm 2 m/S 764 mmHg 65%
    10:00 +20°C° 0 mm 2 m/S 764 mmHg 57%
    11:00 +21°C° 0 mm 2 m/S 764 mmHg 55%
    12:00 +22°C° 0 mm 3 m/S 763 mmHg 52%
    13:00 +24°C° 0 mm 3 m/S 763 mmHg 49%
    14:00 +22°C° 0 mm 3 m/S 763 mmHg 51%
    15:00 +22°C° 0 mm 4 m/S 762 mmHg 52%
    16:00 +22°C° 0 mm 4 m/S 762 mmHg 53%
    17:00 +20°C° 0 mm 4 m/S 762 mmHg 59%
    18:00 +19°C° 0 mm 3 m/S 762 mmHg 65%
    19:00 +17°C° 0 mm 3 m/S 762 mmHg 72%
    20:00 +16°C° 0 mm 2 m/S 762 mmHg 76%
    21:00 +14°C° 0 mm 2 m/S 763 mmHg 80%
    22:00 +13°C° 0 mm 2 m/S 763 mmHg 84%
    23:00 +13°C° 0 mm 2 m/S 763 mmHg 84%

    3 Mai, Mittwoch

    Zeit Temperatur Niederschläge Wind Luftdruck Luftfeuchtigkeit
    00:00 +13°C° 0 mm 2 m/S 762 mmHg 85%
    01:00 +13°C° 0 mm 2 m/S 762 mmHg 85%
    02:00 +13°C° 0 mm 2 m/S 762 mmHg 85%
    03:00 +13°C° 0 mm 2 m/S 761 mmHg 85%
    04:00 +13°C° 0 mm 2 m/S 761 mmHg 85%
    05:00 +15°C° 0 mm 2 m/S 761 mmHg 80%
    06:00 +16°C° 0 mm 2 m/S 761 mmHg 75%
    07:00 +18°C° 0 mm 2 m/S 761 mmHg 70%
    08:00 +20°C° 0 mm 2 m/S 761 mmHg 65%
    09:00 +23°C° 0 mm 2 m/S 761 mmHg 60%
    10:00 +25°C° 0 mm 2 m/S 761 mmHg 54%
    11:00 +26°C° 0 mm 3 m/S 760 mmHg 53%
    12:00 +27°C° 0 mm 3 m/S 760 mmHg 51%
    13:00 +28°C° 0 mm 4 m/S 760 mmHg 49%
    14:00 +27°C° 0 mm 4 m/S 759 mmHg 50%
    15:00 +27°C° 0 mm 4 m/S 759 mmHg 52%
    16:00 +27°C° 0 mm 5 m/S 759 mmHg 53%
    17:00 +25°C° 0 mm 4 m/S 759 mmHg 61%
    18:00 +22°C° 0 mm 3 m/S 759 mmHg 68%
    19:00 +20°C° 0 mm 3 m/S 759 mmHg 76%
    20:00 +18°C° 0,1 mm 2 m/S 760 mmHg 79%
    21:00 +17°C° 0,1 mm 2 m/S 760 mmHg 83%
    22:00 +15°C° 0,1 mm 2 m/S 760 mmHg 87%
    23:00 +15°C° 0 mm 2 m/S 760 mmHg 86%

    4 Mai, Donnerstag

    Zeit Temperatur Niederschläge Wind Luftdruck Luftfeuchtigkeit
    00:00 +15°C° 0 mm 1 m/S 759 mmHg 86%
    01:00 +15°C° 0 mm 1 m/S 759 mmHg 86%
    02:00 +15°C° 0,1 mm 1 m/S 759 mmHg 86%
    03:00 +15°C° 0,1 mm 1 m/S 758 mmHg 86%
    04:00 +14°C° 0,1 mm 1 m/S 758 mmHg 86%
    05:00 +16°C° 0,1 mm 1 m/S 758 mmHg 82%
    06:00 +19°C° 0,1 mm 1 m/S 758 mmHg 77%
    07:00 +21°C° 0,1 mm 1 m/S 759 mmHg 72%
    08:00 +23°C° 0 mm 1 m/S 759 mmHg 66%
    09:00 +24°C° 0 mm 1 m/S 759 mmHg 60%
    10:00 +26°C° 0 mm 2 m/S 759 mmHg 55%
    11:00 +27°C° 0 mm 2 m/S 758 mmHg 52%
    12:00 +28°C° 0 mm 3 m/S 758 mmHg 49%
    13:00 +29°C° 0 mm 4 m/S 758 mmHg 46%
    14:00 +28°C° 0 mm 4 m/S 758 mmHg 48%
    15:00 +28°C° 0 mm 4 m/S 758 mmHg 50%
    16:00 +28°C° 0 mm 4 m/S 758 mmHg 51%
    17:00 +26°C° 0 mm 4 m/S 758 mmHg 58%
    18:00 +24°C° 0 mm 3 m/S 758 mmHg 65%
    19:00 +21°C° 0 mm 3 m/S 758 mmHg 72%
    20:00 +19°C° 0 mm 2 m/S 758 mmHg 77%
    21:00 +18°C° 0 mm 2 m/S 759 mmHg 81%
    22:00 +16°C° 0 mm 2 m/S 759 mmHg 85%
    23:00 +17°C° 0 mm 2 m/S 759 mmHg 85%
    Mehr zeigen